Regional Weather Roundup
Issued by NWS

Home | Current Version | Previous Version | Text Only | Print | Product List | Glossary Off
Versions: 1 2 3 4 5 6 7 8 9 10 11 12 13 14 15 16 17 18 19 20 21 22 23 24 25 26 27 28 29 30 31 32 33 34 35 36 37 38 39 40 41 42 43 44 45 46 47 48 49 50

000
ASUS43 KMKX 171120
RWRWI

WISCONSIN REGIONAL WEATHER ROUNDUP
NATIONAL WEATHER SERVICE MILWAUKEE/SULLIVAN WI
500 AM CST SAT FEB 17 2018

NOTE: "FAIR" INDICATES FEW OR NO CLOUDS BELOW 12,000 FEET WITH NO
SIGNIFICANT WEATHER AND/OR OBSTRUCTIONS TO VISIBILITY.

WIZ001-002-006>008-014>016-023>028-171200-
NORTHWEST WISCONSIN

CITY           SKY/WX    TMP DP  RH WIND       PRES   REMARKS
SUPERIOR ARPT  FAIR      18  10  71 SW12G17   29.81F WCI   6
ASHLAND        CLOUDY    18   9  68 SW13      29.82F WCI   5
HAYWARD        FAIR      16   7  67 SW9       29.84F WCI   4
SIREN          FAIR      20  11  68 SW8       29.85S WCI  11
CUMBERLAND     CLOUDY    18   9  68 SW10      29.86S WCI   6
RICE LAKE      CLOUDY    17   9  71 SE6       29.89F WCI   9
CHETEK         MOCLDY    17   8  69 S3        29.89F
LADYSMITH      MOCLDY    15   7  71 S9        29.90S WCI   3
EAU CLAIRE     FAIR      15   7  70 S5        29.90F WCI   8
MENOMONIE      FAIR      20   9  62 S3        29.90F
NEW RICHMOND   CLOUDY    20  10  67 S10       29.87F WCI   8
OSCEOLA        FAIR      19  11  72 S6        29.91S WCI  11
$$

WIZ003>005-009-010-017-018-171200-
NORTH CENTRAL WISCONSIN

CITY           SKY/WX    TMP DP  RH WIND       PRES   REMARKS
MANITOWISH WTR MOCLDY    13   4  68 SW9       29.82S WCI   1
ARBOR VITAE    FAIR      13   5  70 S8        29.83F WCI   2
WOODRUFF       FAIR      13   5  70 S8        29.83F WCI   2
RHINELANDER    FAIR      12   3  67 SW7       29.86F WCI   1
EAGLE RIVER    MOCLDY    13   2  62 SW9       29.83F WCI   1
LAND O LAKES   CLOUDY    13   3  65 SW7       29.82F WCI   3
PHILLIPS       CLOUDY    13   5  70 S6        29.85F WCI   4
TOMAHAWK       FAIR      10   2  71 CALM      29.89F
MEDFORD        FAIR      12   4  69 S12       29.88F WCI  -2
MERRILL        FAIR      13   3  65 SW5       29.92F WCI   5
$$

WIZ029-030-035-036-043>047-171200-
CENTRAL WISCONSIN

CITY           SKY/WX    TMP DP  RH WIND       PRES   REMARKS
WAUSAU         FAIR      13   3  64 CALM      29.92F
MOSINEE        FAIR      14   5  67 S8        29.94F WCI   3
MARSHFIELD     FAIR      13   5  70 S7        29.91F WCI   3
STEVENS POINT  FAIR      13   4  66 SW7       29.97F WCI   3
WAUPACA        FAIR      18   7  61 S8        30.01F WCI   8
WAUTOMA        FAIR      15   6  67 S7        30.02F WCI   5
WISC RAPIDS    FAIR      16   3  56 SW8       29.98F WCI   5
CAMP DOUGLAS   FAIR      20   6  54 SW10      29.99F WCI   8
$$

WIZ011>013-019>022-031-037>040-048>050-171200-
NORTHEAST WISCONSIN

CITY           SKY/WX    TMP DP  RH WIND       PRES   REMARKS
ANTIGO         FAIR      11   2  67 SW8       29.91F WCI   0
SHAWANO        FAIR      17   4  57 SW5       29.98F WCI  10
OCONTO         FAIR      17   2  52 S5        30.00F WCI  10
STURGEON BAY   FAIR      16   5  62 S12       30.00F WCI   3
GREEN BAY      FAIR      17   5  59 S9        30.01F WCI   6
MANITOWOC      FAIR      18   5  57 S5        30.05F WCI  11
APPLETON       FAIR      18   5  57 S10       29.99F WCI   6
CLINTONVILLE   FAIR      15   4  61 S6        29.99S WCI   7
OSHKOSH        FAIR      16   6  65 SW14      30.03F WCI   2
$$

WIZ032>034-041-042-053>061-171200-
SOUTHWEST WISCONSIN

CITY           SKY/WX    TMP DP  RH WIND       PRES   REMARKS
LA CROSSE      FAIR      19   8  62 S12       29.99F WCI   7
SPARTA         FAIR      19   8  63 S3        30.00F
VIROQUA        FAIR      17  10  73 S7        29.98S WCI   7
BOSCOBEL       FAIR      16   9  74 CALM      30.05F
PRAIRIE DU CHI MOCLDY    21   6  52 S5        30.03F WCI  15
PLATTEVILLE    FAIR      18  10  72 S10       30.04F WCI   6
$$

WIZ056-057-062-063-064-067-068-171200-
SOUTH CENTRAL WISCONSIN

CITY           SKY/WX    TMP DP  RH WIND       PRES   REMARKS
REEDSBURG      FAIR      18   6  60 S9        30.02F WCI   7
BARABOO/DELLS  FAIR      18   6  58 SW9       30.02F WCI   7
LONE ROCK      FAIR      18   9  68 CALM      30.06F
MINERAL POINT  FAIR      18  12  79 SE6       30.03S WCI   9
MADISON        FAIR      17   7  64 S6        30.07F WCI   9
MIDDLETON      FAIR      19   8  63 S12       30.07R WCI   6
WATERTOWN      FAIR      14   8  76 S5        30.09R WCI   7
MONROE         FAIR      16   9  73 S9        30.06F WCI   4
JANESVILLE     FAIR      19   9  63 S5        30.11R WCI  13
$$

WIZ051-052-058>065-066-070>072-171200-
SOUTHEAST WISCONSIN

CITY           SKY/WX    TMP DP  RH WIND       PRES   REMARKS
MILWAUKEE      FAIR      18   7  62 SW12      30.10F WCI   5
WAUKESHA       FAIR      14   5  67 CALM      30.10S
MILWAUKEE/TIMM FAIR      18   3  53 W6        30.11S WCI   9
RACINE         FAIR      18   5  57 SW8       30.12F WCI   8
BURLINGTON     FAIR      15   8  72 S7        30.11S WCI   5
KENOSHA        FAIR      15   7  70 SW6       30.12S WCI   6
FOND DU LAC    FAIR      19   5  54 SW12      30.05F WCI   7
SHEBOYGAN      FAIR      17   7  64 SW10      30.05F WCI   5
WEST BEND      FAIR      19   5  53 SW9       30.07F WCI   9
JUNEAU         FAIR      14   7  72 S8        30.07S WCI   3
$$

LSZ147-162-171200-
LAKE SUPERIOR

STATION/POSITION TIME  TEMP    WIND        PRES    WAVE
                       AIR SEA DIR/SP/G            HT/PER
                 (UTC) (F)     (DEG/KT/KT) (MB)    (FT/S)
DEVILS ISLAND    1100   20     230/ 20/ 26 1009.9F
SAXON HARBOR     1040   20     200/ 10/ 20 1009.5F
$$

LMZ867-665-643>646-171200-
LAKE MICHIGAN

STATION/POSITION TIME  TEMP    WIND        PRES    WAVE
                       AIR SEA DIR/SP/G            HT/PER
                 (UTC) (F)     (DEG/KT/KT) (MB)    (FT/S)
NORTHPORT PIER   1104   17                 1015.2
KEWAUNEE LAKESHO 1100   18     220/  8/ 12 1016.0
SHEBOYGAN LAKESH 1100   18     210/ 10/ 12 1018.8F
PORT WASHINGTON  1040   19     230/  4/  7 1020.0F
MILWAUKEE LAKESH 1100   20     230/ 11/ 12   N/A
KENOSHA   LAKESH 1100   17     220/  1/  8 1020.3
$$

TC  - TEMPERATURE IN CELSIUS
VSB - VISIBILITY IN STATUTE MILES
WCI - WIND CHILL INDEX
HX  - HEAT INDEX




USA.gov is the U.S. government's official web portal to all federal, state and local government web resources and services.